| time (UTC) | temp C | wind direction | speed KPH | gust KPH | rain 1hr cm | rain 24hr cm | rain mn cm | humidity % | barometer mb |
| 20260502163507 | 22 | 103 | 20.9 | 22.5 | 0.00 | 0.00 | 0.00 | 24 | 1021.1 |
| 20260502163008 | 22 | 101 | 25.7 | 29.0 | 0.00 | 0.00 | 0.00 | 25 | 1021.7 |
| 20260502162008 | 22 | 98 | 20.9 | 25.7 | 0.00 | 0.00 | 0.00 | 23 | 1021.8 |
| 20260502161508 | 23 | 99 | 24.1 | 27.4 | 0.00 | 0.00 | 0.00 | 24 | 1021.9 |
| 20260502161007 | 23 | 89 | 17.7 | 19.3 | 0.00 | 0.00 | 0.00 | 23 | 1022.0 |
| 20260502160508 | 22 | 96 | 24.1 | 25.7 | 0.00 | 0.00 | 0.00 | 24 | 1022.1 |
| 20260502152007 | 23 | 88 | 17.7 | 20.9 | 0.00 | 0.00 | 0.00 | 26 | 1022.2 |
| 20260502151508 | -1 | 0 | 0.0 | 0.0 | 0.00 | 0.00 | 0.00 | 100 | 1022.4 |
| 20260502151008 | 22 | 85 | 29.0 | 30.6 | 0.00 | 0.00 | 0.00 | 25 | 1022.3 |
| 20260502150507 | 22 | 85 | 29.0 | 30.6 | 0.00 | 0.00 | 0.00 | 25 | 1022.5 |
| 20260502130508 | 21 | 105 | 20.9 | 25.7 | 0.00 | 0.00 | 0.00 | 28 | 1023.9 |
| 20260502123507 | 21 | 95 | 17.7 | 20.9 | 0.00 | 0.00 | 0.00 | 30 | 1024.4 |
| 20260502122507 | 21 | 100 | 25.7 | 29.0 | 0.00 | 0.00 | 0.00 | 32 | 1024.7 |
| 20260502122008 | 21 | 89 | 22.5 | 25.7 | 0.00 | 0.00 | 0.00 | 29 | 1024.4 |
| 20260502121508 | 22 | 74 | 16.1 | 17.7 | 0.00 | 0.00 | 0.00 | 26 | 1024.4 |
| 20260502121009 | 21 | 108 | 9.7 | 16.1 | 0.00 | 0.00 | 0.00 | 27 | 1024.6 |
| 20260502120507 | 22 | 100 | 19.3 | 24.1 | 0.00 | 0.00 | 0.00 | 28 | 1024.7 |
| 20260502115507 | 21 | 88 | 22.5 | 27.4 | 0.00 | 0.00 | 0.00 | 29 | 1024.8 |
| 20260502115009 | 20 | 76 | 24.1 | 27.4 | 0.00 | 0.00 | 0.00 | 28 | 1024.8 |
| 20260502114509 | 21 | 101 | 27.4 | 30.6 | 0.00 | 0.00 | 0.00 | 28 | 1025.0 |
| 20260502114007 | 21 | 84 | 24.1 | 24.1 | 0.00 | 0.00 | 0.00 | 27 | 1025.1 |
| 20260502113508 | 21 | 73 | 19.3 | 20.9 | 0.00 | 0.00 | 0.00 | 28 | 1025.1 |
| 20260502113007 | 20 | 105 | 17.7 | 20.9 | 0.00 | 0.00 | 0.00 | 28 | 1025.3 |
| 20260502112507 | 20 | 84 | 24.1 | 24.1 | 0.00 | 0.00 | 0.00 | 28 | 1025.3 |
| 20260502112008 | 20 | 94 | 27.4 | 30.6 | 0.00 | 0.00 | 0.00 | 29 | 1025.5 |
| 20260502111508 | 20 | 116 | 20.9 | 27.4 | 0.00 | 0.00 | 0.00 | 31 | 1025.3 |
| 20260502111007 | 20 | 111 | 22.5 | 24.1 | 0.00 | 0.00 | 0.00 | 29 | 1025.3 |
| 20260502110508 | 20 | 102 | 19.3 | 24.1 | 0.00 | 0.00 | 0.00 | 30 | 1025.3 |
| 20260502110008 | 20 | 77 | 22.5 | 24.1 | 0.00 | 0.00 | 0.00 | 31 | 1025.5 |
| 20260502105508 | 20 | 92 | 20.9 | 20.9 | 0.00 | 0.00 | 0.00 | 31 | 1025.5 |
| 20260502105007 | 20 | 89 | 19.3 | 20.9 | 0.00 | 0.00 | 0.00 | 33 | 1025.6 |
| 20260502104508 | 20 | 89 | 19.3 | 20.9 | 0.00 | 0.00 | 0.00 | 33 | 1025.5 |
| 20260502104007 | 20 | 94 | 17.7 | 20.9 | 0.00 | 0.00 | 0.00 | 34 | 1025.8 |
| 20260502103507 | 20 | 86 | 22.5 | 22.5 | 0.00 | 0.00 | 0.00 | 34 | 1025.5 |
| 20260502103008 | 19 | 92 | 24.1 | 25.7 | 0.00 | 0.00 | 0.00 | 35 | 1025.9 |
| 20260502102508 | 20 | 94 | 27.4 | 30.6 | 0.00 | 0.00 | 0.00 | 34 | 1025.8 |
| 20260502102007 | 20 | 104 | 19.3 | 22.5 | 0.00 | 0.00 | 0.00 | 36 | 1025.9 |
| 20260502101508 | 20 | 99 | 19.3 | 22.5 | 0.00 | 0.00 | 0.00 | 35 | 1026.0 |
| 20260502101008 | 20 | 96 | 19.3 | 20.9 | 0.00 | 0.00 | 0.00 | 36 | 1026.1 |
| 20260502100508 | 20 | 91 | 17.7 | 19.3 | 0.00 | 0.00 | 0.00 | 37 | 1026.2 |
| 20260502091507 | 18 | 105 | 9.7 | 12.9 | 0.00 | 0.00 | 0.00 | 37 | 1026.7 |
| 20260502091008 | 18 | 101 | 22.5 | 25.7 | 0.00 | 0.00 | 0.00 | 39 | 1026.4 |
| 20260502090507 | 18 | 110 | 22.5 | 30.6 | 0.00 | 0.00 | 0.00 | 37 | 1026.4 |
| 20260502071507 | 14 | 124 | 19.3 | 20.9 | 0.00 | 0.00 | 0.00 | 57 | 1026.6 |
| 20260502071008 | 13 | 109 | 16.1 | 19.3 | 0.00 | 0.00 | 0.00 | 57 | 1026.7 |
| 20260502070507 | 12 | 121 | 19.3 | 24.1 | 0.00 | 0.00 | 0.00 | 58 | 1026.6 |
| 20260502070008 | 12 | 121 | 19.3 | 24.1 | 0.00 | 0.00 | 0.00 | 58 | 1026.9 |
| 20260502065508 | 12 | 116 | 19.3 | 22.5 | 0.00 | 0.00 | 0.00 | 58 | 1026.6 |
| 20260502065007 | 12 | 125 | 24.1 | 25.7 | 0.00 | 0.00 | 0.00 | 61 | 1026.6 |
| 20260502064508 | 12 | 110 | 19.3 | 24.1 | 0.00 | 0.00 | 0.00 | 63 | 1026.7 |
| 20260502064007 | 11 | 101 | 17.7 | 22.5 | 0.00 | 0.00 | 0.00 | 64 | 1026.5 |
| 20260502063508 | 11 | 108 | 20.9 | 24.1 | 0.00 | 0.00 | 0.00 | 65 | 1026.7 |
| 20260502063008 | 11 | 112 | 24.1 | 27.4 | 0.00 | 0.00 | 0.00 | 65 | 1026.6 |
| 20260502062508 | 11 | 109 | 22.5 | 24.1 | 0.00 | 0.00 | 0.00 | 65 | 1026.7 |
| 20260502062008 | 10 | 121 | 27.4 | 29.0 | 0.00 | 0.00 | 0.00 | 65 | 1026.7 |
| 20260502061508 | 10 | 116 | 24.1 | 25.7 | 0.00 | 0.00 | 0.00 | 66 | 1026.6 |
| 20260502061007 | 10 | 112 | 19.3 | 20.9 | 0.00 | 0.00 | 0.00 | 65 | 1026.5 |
| 20260502060508 | 11 | 103 | 19.3 | 20.9 | 0.00 | 0.00 | 0.00 | 62 | 1026.5 |
| 20260502060008 | 10 | 91 | 17.7 | 20.9 | 0.00 | 0.00 | 0.00 | 67 | 1026.6 |
| 20260502055507 | 10 | 98 | 19.3 | 22.5 | 0.00 | 0.00 | 0.00 | 66 | 1026.7 |
| 20260502055008 | 10 | 113 | 20.9 | 25.7 | 0.00 | 0.00 | 0.00 | 66 | 1026.4 |
| 20260502054508 | 9 | 119 | 19.3 | 24.1 | 0.00 | 0.00 | 0.00 | 68 | 1026.7 |
| 20260502054008 | 8 | 145 | 22.5 | 25.7 | 0.00 | 0.00 | 0.00 | 69 | 1026.6 |
| 20260502053508 | 8 | 140 | 22.5 | 29.0 | 0.00 | 0.00 | 0.00 | 69 | 1026.6 |
| 20260502053008 | 8 | 122 | 25.7 | 30.6 | 0.00 | 0.00 | 0.00 | 70 | 1026.7 |
| 20260502052507 | 8 | 136 | 22.5 | 25.7 | 0.00 | 0.00 | 0.00 | 72 | 1026.4 |
| 20260502052007 | 8 | 148 | 25.7 | 27.4 | 0.00 | 0.00 | 0.00 | 70 | 1026.5 |
| 20260502051507 | 8 | 138 | 24.1 | 29.0 | 0.00 | 0.00 | 0.00 | 70 | 1026.5 |
| 20260502051007 | 8 | 148 | 24.1 | 29.0 | 0.00 | 0.00 | 0.00 | 69 | 1026.5 |
| 20260502050508 | 8 | 148 | 27.4 | 30.6 | 0.00 | 0.00 | 0.00 | 68 | 1026.6 |
| 20260502050009 | 8 | 146 | 29.0 | 30.6 | 0.00 | 0.00 | 0.00 | 69 | 1026.8 |
| 20260502045507 | 8 | 148 | 27.4 | 29.0 | 0.00 | 0.00 | 0.00 | 67 | 1026.6 |
| 20260502045008 | 8 | 151 | 25.7 | 27.4 | 0.00 | 0.00 | 0.00 | 67 | 1026.9 |
| 20260502044507 | 8 | 138 | 27.4 | 29.0 | 0.00 | 0.00 | 0.00 | 69 | 1026.8 |
| 20260502043508 | 9 | 145 | 27.4 | 29.0 | 0.00 | 0.00 | 0.00 | 64 | 1026.9 |
| 20260502043008 | 9 | 136 | 27.4 | 27.4 | 0.00 | 0.00 | 0.00 | 64 | 1026.7 |
| 20260502042508 | 9 | 137 | 25.7 | 29.0 | 0.00 | 0.00 | 0.00 | 65 | 1026.6 |
| 20260502042007 | 9 | 143 | 25.7 | 29.0 | 0.00 | 0.00 | 0.00 | 65 | 1026.7 |
| 20260502041508 | 8 | 140 | 25.7 | 27.4 | 0.00 | 0.00 | 0.00 | 66 | 1026.7 |
| 20260502041008 | 9 | 139 | 25.7 | 27.4 | 0.00 | 0.00 | 0.00 | 65 | 1026.6 |
| 20260502040507 | 9 | 137 | 27.4 | 29.0 | 0.00 | 0.00 | 0.00 | 65 | 1026.5 |
| 20260502040007 | 10 | 136 | 25.7 | 27.4 | 0.00 | 0.00 | 0.00 | 63 | 1026.5 |
| 20260502035507 | 10 | 133 | 22.5 | 24.1 | 0.00 | 0.00 | 0.00 | 64 | 1026.8 |
| 20260502035007 | 10 | 141 | 22.5 | 22.5 | 0.00 | 0.00 | 0.00 | 64 | 1026.6 |
| 20260502034508 | 9 | 137 | 20.9 | 22.5 | 0.00 | 0.00 | 0.00 | 65 | 1026.6 |
| 20260502034008 | 10 | 133 | 20.9 | 22.5 | 0.00 | 0.00 | 0.00 | 64 | 1026.6 |
| 20260502033508 | 10 | 141 | 19.3 | 22.5 | 0.00 | 0.00 | 0.00 | 63 | 1026.6 |
| 20260502033008 | 10 | 145 | 20.9 | 24.1 | 0.00 | 0.00 | 0.00 | 61 | 1026.4 |
| 20260502032507 | 10 | 146 | 25.7 | 27.4 | 0.00 | 0.00 | 0.00 | 61 | 1026.6 |
| 20260502032007 | 10 | 145 | 24.1 | 27.4 | 0.00 | 0.00 | 0.00 | 61 | 1026.5 |
| 20260502031508 | 10 | 140 | 24.1 | 27.4 | 0.00 | 0.00 | 0.00 | 62 | 1026.4 |
| 20260502031008 | 10 | 147 | 22.5 | 25.7 | 0.00 | 0.00 | 0.00 | 61 | 1026.4 |
| 20260502030508 | 10 | 149 | 20.9 | 25.7 | 0.00 | 0.00 | 0.00 | 62 | 1026.3 |
| 20260502030009 | 10 | 150 | 22.5 | 24.1 | 0.00 | 0.00 | 0.00 | 62 | 1026.6 |
| 20260502025508 | 10 | 137 | 24.1 | 25.7 | 0.00 | 0.00 | 0.00 | 61 | 1026.2 |
| 20260502025008 | 10 | 139 | 22.5 | 25.7 | 0.00 | 0.00 | 0.00 | 60 | 1026.4 |
| 20260502024508 | 11 | 135 | 24.1 | 25.7 | 0.00 | 0.00 | 0.00 | 59 | 1026.4 |
| 20260502024007 | 11 | 132 | 22.5 | 24.1 | 0.00 | 0.00 | 0.00 | 59 | 1026.2 |
| 20260502023507 | 10 | 134 | 22.5 | 24.1 | 0.00 | 0.00 | 0.00 | 61 | 1026.2 |
| 20260502023008 | 10 | 126 | 19.3 | 22.5 | 0.00 | 0.00 | 0.00 | 60 | 1026.3 |
| 20260502022508 | 11 | 127 | 22.5 | 25.7 | 0.00 | 0.00 | 0.00 | 59 | 1026.4 |
| 20260502022007 | 11 | 123 | 22.5 | 24.1 | 0.00 | 0.00 | 0.00 | 57 | 1026.2 |
| 20260502021508 | 11 | 128 | 22.5 | 25.7 | 0.00 | 0.00 | 0.00 | 58 | 1026.3 |
| 20260502021007 | 11 | 120 | 20.9 | 22.5 | 0.00 | 0.00 | 0.00 | 57 | 1026.3 |
| 20260502020508 | 11 | 125 | 20.9 | 24.1 | 0.00 | 0.00 | 0.00 | 58 | 1026.3 |
| 20260502020008 | 12 | 118 | 20.9 | 22.5 | 0.00 | 0.00 | 0.00 | 55 | 1026.2 |
| 20260502015507 | 12 | 115 | 20.9 | 20.9 | 0.00 | 0.00 | 0.00 | 53 | 1026.3 |
| 20260502015007 | 11 | 115 | 16.1 | 17.7 | 0.00 | 0.00 | 0.00 | 56 | 1026.4 |
| 20260502014507 | 12 | 89 | 19.3 | 20.9 | 0.00 | 0.00 | 0.00 | 51 | 1026.5 |
| 20260502014007 | 12 | 94 | 17.7 | 17.7 | 0.00 | 0.00 | 0.00 | 51 | 1026.4 |
| 20260502013507 | 11 | 111 | 17.7 | 17.7 | 0.00 | 0.00 | 0.00 | 58 | 1026.6 |
| 20260502013008 | 13 | 91 | 16.1 | 17.7 | 0.00 | 0.00 | 0.00 | 51 | 1026.4 |
| 20260502012008 | 11 | 119 | 17.7 | 19.3 | 0.00 | 0.00 | 0.00 | 57 | 1026.4 |
| 20260502011508 | 12 | 122 | 16.1 | 16.1 | 0.00 | 0.00 | 0.00 | 54 | 1026.5 |
| 20260502011008 | 13 | 109 | 12.9 | 14.5 | 0.00 | 0.00 | 0.00 | 51 | 1026.7 |
| 20260502010508 | 12 | 116 | 14.5 | 16.1 | 0.00 | 0.00 | 0.00 | 54 | 1026.5 |
| 20260502005507 | 13 | 105 | 12.9 | 12.9 | 0.00 | 0.00 | 0.00 | 49 | 1026.8 |
| 20260502005008 | 12 | 138 | 12.9 | 14.5 | 0.00 | 0.00 | 0.00 | 55 | 1026.9 |
| 20260502004508 | 12 | 165 | 6.4 | 9.7 | 0.00 | 0.00 | 0.00 | 54 | 1026.7 |
| 20260502004007 | 12 | 141 | 11.3 | 11.3 | 0.00 | 0.00 | 0.00 | 54 | 1026.8 |
| 20260502003507 | 11 | 158 | 12.9 | 14.5 | 0.00 | 0.00 | 0.00 | 57 | 1026.8 |
| 20260502003008 | 11 | 161 | 12.9 | 14.5 | 0.00 | 0.00 | 0.00 | 58 | 1027.0 |
| 20260502002508 | 12 | 149 | 14.5 | 16.1 | 0.00 | 0.00 | 0.00 | 54 | 1026.8 |
| 20260502002007 | 12 | 150 | 12.9 | 12.9 | 0.00 | 0.00 | 0.00 | 56 | 1027.1 |
| 20260502001506 | 11 | 169 | 9.7 | 12.9 | 0.00 | 0.00 | 0.00 | 57 | 1026.9 |
| 20260502001008 | 12 | 169 | 8.0 | 8.0 | 0.00 | 0.00 | 0.00 | 56 | 1027.0 |
| 20260502000507 | 13 | 143 | 9.7 | 14.5 | 0.00 | 0.00 | 0.00 | 52 | 1027.1 |
| 20260502000008 | 12 | 140 | 11.3 | 12.9 | 0.00 | 0.00 | 0.00 | 55 | 1027.2 |
| 20260501235507 | 12 | 175 | 8.0 | 8.0 | 0.00 | 0.00 | 0.00 | 54 | 1026.8 |
| 20260501235008 | 13 | 166 | 6.4 | 9.7 | 0.00 | 0.00 | 0.00 | 52 | 1027.0 |
| 20260501234507 | 11 | 169 | 9.7 | 11.3 | 0.00 | 0.00 | 0.00 | 57 | 1027.1 |
| 20260501234008 | 11 | 173 | 9.7 | 11.3 | 0.00 | 0.00 | 0.00 | 58 | 1027.3 |
| 20260501233507 | 12 | 162 | 9.7 | 14.5 | 0.00 | 0.00 | 0.00 | 56 | 1027.2 |
| 20260501233007 | 12 | 172 | 9.7 | 12.9 | 0.00 | 0.00 | 0.00 | 56 | 1027.1 |
| 20260501232507 | 12 | 149 | 12.9 | 12.9 | 0.00 | 0.00 | 0.00 | 53 | 1027.0 |
| 20260501232007 | 13 | 150 | 9.7 | 12.9 | 0.00 | 0.00 | 0.00 | 52 | 1027.4 |
| 20260501231507 | 12 | 155 | 11.3 | 19.3 | 0.00 | 0.00 | 0.00 | 54 | 1027.0 |
| 20260501231008 | 13 | 152 | 9.7 | 11.3 | 0.00 | 0.00 | 0.00 | 51 | 1027.2 |
| 20260501230508 | 14 | 116 | 11.3 | 12.9 | 0.00 | 0.00 | 0.00 | 48 | 1027.4 |
| 20260501230008 | 14 | 137 | 8.0 | 9.7 | 0.00 | 0.00 | 0.00 | 48 | 1027.4 |
| 20260501225507 | 14 | 134 | 12.9 | 16.1 | 0.00 | 0.00 | 0.00 | 48 | 1027.3 |
| 20260501225008 | 14 | 128 | 9.7 | 12.9 | 0.00 | 0.00 | 0.00 | 48 | 1027.3 |
| 20260501224508 | 13 | 146 | 9.7 | 12.9 | 0.00 | 0.00 | 0.00 | 53 | 1027.5 |
| 20260501224007 | 13 | 159 | 8.0 | 9.7 | 0.00 | 0.00 | 0.00 | 52 | 1027.6 |
| 20260501223508 | 15 | 150 | 8.0 | 9.7 | 0.00 | 0.00 | 0.00 | 48 | 1027.4 |
| 20260501223008 | 13 | 165 | 6.4 | 8.0 | 0.00 | 0.00 | 0.00 | 49 | 1027.4 |
| 20260501222508 | 14 | 162 | 8.0 | 9.7 | 0.00 | 0.00 | 0.00 | 49 | 1027.3 |
| 20260501222008 | 15 | 95 | 12.9 | 16.1 | 0.00 | 0.00 | 0.00 | 45 | 1027.4 |
| 20260501221508 | 15 | 86 | 12.9 | 16.1 | 0.00 | 0.00 | 0.00 | 44 | 1027.4 |
| 20260501221008 | 14 | 119 | 9.7 | 9.7 | 0.00 | 0.00 | 0.00 | 48 | 1027.6 |
| 20260501220008 | 16 | 99 | 11.3 | 12.9 | 0.00 | 0.00 | 0.00 | 43 | 1027.6 |
| 20260501215508 | 15 | 112 | 9.7 | 9.7 | 0.00 | 0.00 | 0.00 | 45 | 1027.6 |
| 20260501215008 | 16 | 120 | 9.7 | 9.7 | 0.00 | 0.00 | 0.00 | 44 | 1027.6 |
| 20260501214506 | 16 | 94 | 11.3 | 14.5 | 0.00 | 0.00 | 0.00 | 43 | 1027.4 |
| 20260501213507 | 15 | 121 | 9.7 | 11.3 | 0.00 | 0.00 | 0.00 | 44 | 1027.4 |
| 20260501213007 | 16 | 136 | 9.7 | 11.3 | 0.00 | 0.00 | 0.00 | 44 | 1027.4 |
| 20260501212507 | 15 | 92 | 12.9 | 14.5 | 0.00 | 0.00 | 0.00 | 44 | 1027.3 |
| 20260501212008 | 15 | 89 | 12.9 | 14.5 | 0.00 | 0.00 | 0.00 | 43 | 1027.7 |
| 20260501211507 | 16 | 89 | 12.9 | 14.5 | 0.00 | 0.00 | 0.00 | 42 | 1027.6 |
| 20260501211008 | 16 | 107 | 8.0 | 9.7 | 0.00 | 0.00 | 0.00 | 43 | 1027.6 |
| 20260501210508 | 16 | 100 | 11.3 | 11.3 | 0.00 | 0.00 | 0.00 | 42 | 1027.6 |
| 20260501210007 | 16 | 94 | 9.7 | 9.7 | 0.00 | 0.00 | 0.00 | 42 | 1027.5 |
| 20260501205508 | 16 | 116 | 6.4 | 11.3 | 0.00 | 0.00 | 0.00 | 44 | 1027.5 |
| 20260501205007 | 15 | 159 | 6.4 | 6.4 | 0.00 | 0.00 | 0.00 | 46 | 1027.5 |
| 20260501204509 | 16 | 121 | 8.0 | 8.0 | 0.00 | 0.00 | 0.00 | 43 | 1027.4 |
| 20260501204007 | 16 | 83 | 9.7 | 11.3 | 0.00 | 0.00 | 0.00 | 41 | 1027.8 |
| 20260501203508 | 16 | 97 | 6.4 | 8.0 | 0.00 | 0.00 | 0.00 | 42 | 1027.8 |
| 20260501203007 | 16 | 144 | 4.8 | 6.4 | 0.00 | 0.00 | 0.00 | 45 | 1027.5 |
| 20260501202007 | 17 | 78 | 16.1 | 17.7 | 0.00 | 0.00 | 0.00 | 40 | 1027.6 |
| 20260501201508 | 17 | 79 | 11.3 | 14.5 | 0.00 | 0.00 | 0.00 | 41 | 1027.5 |
| 20260501201008 | 16 | 94 | 6.4 | 8.0 | 0.00 | 0.00 | 0.00 | 42 | 1027.7 |
| 20260501200508 | 17 | 91 | 8.0 | 11.3 | 0.00 | 0.00 | 0.00 | 42 | 1027.6 |
| 20260501200007 | 17 | 87 | 8.0 | 9.7 | 0.00 | 0.00 | 0.00 | 42 | 1027.6 |
| 20260501195507 | 17 | 56 | 12.9 | 14.5 | 0.00 | 0.00 | 0.00 | 41 | 1027.6 |
| 20260501195008 | 17 | 75 | 9.7 | 9.7 | 0.00 | 0.00 | 0.00 | 42 | 1027.7 |
| 20260501194508 | 17 | 80 | 6.4 | 6.4 | 0.00 | 0.00 | 0.00 | 42 | 1027.5 |
| 20260501194008 | 17 | 71 | 9.7 | 9.7 | 0.00 | 0.00 | 0.00 | 41 | 1027.8 |
| 20260501193507 | 17 | 86 | 4.8 | 6.4 | 0.00 | 0.00 | 0.00 | 41 | 1027.8 |
| 20260501193008 | 17 | 67 | 3.2 | 4.8 | 0.00 | 0.00 | 0.00 | 42 | 1027.9 |
| 20260501192508 | 17 | 84 | 4.8 | 6.4 | 0.00 | 0.00 | 0.00 | 42 | 1027.6 |
| 20260501192007 | 17 | 87 | 3.2 | 4.8 | 0.00 | 0.00 | 0.00 | 43 | 1027.7 |
| 20260501191508 | 17 | 74 | 3.2 | 4.8 | 0.00 | 0.00 | 0.00 | 42 | 1027.8 |
| 20260501191009 | 17 | 87 | 3.2 | 4.8 | 0.00 | 0.00 | 0.00 | 41 | 1027.9 |
| 20260501190508 | 17 | 84 | 3.2 | 3.2 | 0.00 | 0.00 | 0.00 | 41 | 1027.6 |
| 20260501190007 | 17 | 94 | 1.6 | 1.6 | 0.00 | 0.00 | 0.00 | 41 | 1027.6 |
| 20260501185507 | 17 | 94 | 1.6 | 1.6 | 0.00 | 0.00 | 0.00 | 41 | 1027.6 |
| 20260501185008 | 17 | 110 | 1.6 | 3.2 | 0.00 | 0.00 | 0.00 | 41 | 1027.5 |
| 20260501184508 | 17 | 74 | 1.6 | 1.6 | 0.00 | 0.00 | 0.00 | 41 | 1027.6 |
| 20260501184008 | 17 | 53 | 3.2 | 4.8 | 0.00 | 0.00 | 0.00 | 41 | 1027.6 |
| 20260501183508 | 17 | 39 | 3.2 | 3.2 | 0.00 | 0.00 | 0.00 | 40 | 1027.6 |
| 20260501183008 | 17 | 61 | 0.0 | 3.2 | 0.00 | 0.00 | 0.00 | 41 | 1027.6 |
| 20260501182507 | 17 | 120 | 1.6 | 3.2 | 0.00 | 0.00 | 0.00 | 41 | 1027.5 |
| 20260501182007 | 17 | 110 | 1.6 | 1.6 | 0.00 | 0.00 | 0.00 | 41 | 1027.5 |
| 20260501181508 | 17 | 119 | 3.2 | 3.2 | 0.00 | 0.00 | 0.00 | 41 | 1027.5 |
| 20260501181007 | 17 | 111 | 3.2 | 3.2 | 0.00 | 0.00 | 0.00 | 41 | 1027.8 |
| 20260501180508 | 18 | 108 | 3.2 | 4.8 | 0.00 | 0.00 | 0.00 | 41 | 1027.5 |
| 20260501180008 | 18 | 119 | 3.2 | 6.4 | 0.00 | 0.00 | 0.00 | 40 | 1027.4 |
| 20260501175507 | 18 | 96 | 3.2 | 4.8 | 0.00 | 0.00 | 0.00 | 40 | 1027.4 |
| 20260501175008 | 18 | 105 | 6.4 | 6.4 | 0.00 | 0.00 | 0.00 | 40 | 1027.3 |
| 20260501174008 | 18 | 70 | 9.7 | 9.7 | 0.00 | 0.00 | 0.00 | 39 | 1027.5 |
| 20260501173507 | 18 | 62 | 11.3 | 11.3 | 0.00 | 0.00 | 0.00 | 39 | 1027.4 |
| 20260501173008 | 18 | 48 | 8.0 | 9.7 | 0.00 | 0.00 | 0.00 | 39 | 1027.5 |
| 20260501172507 | 18 | 51 | 8.0 | 8.0 | 0.00 | 0.00 | 0.00 | 39 | 1027.3 |
| 20260501172008 | 18 | 58 | 9.7 | 11.3 | 0.00 | 0.00 | 0.00 | 39 | 1027.5 |
| 20260501171508 | 18 | 31 | 6.4 | 9.7 | 0.00 | 0.00 | 0.00 | 39 | 1027.5 |
| 20260501171007 | 18 | 40 | 19.3 | 19.3 | 0.00 | 0.00 | 0.00 | 39 | 1027.6 |
| 20260501170508 | 18 | 46 | 19.3 | 19.3 | 0.00 | 0.00 | 0.00 | 38 | 1027.5 |
| 20260501170008 | 18 | 55 | 11.3 | 12.9 | 0.00 | 0.00 | 0.00 | 39 | 1027.8 |
| 20260501165508 | 18 | 45 | 11.3 | 14.5 | 0.00 | 0.00 | 0.00 | 38 | 1027.8 |
| 20260501165008 | 18 | 55 | 4.8 | 6.4 | 0.00 | 0.00 | 0.00 | 38 | 1027.9 |
| 20260501164508 | 18 | 45 | 11.3 | 17.7 | 0.00 | 0.00 | 0.00 | 39 | 1027.9 |
| 20260501164008 | 18 | 79 | 6.4 | 9.7 | 0.00 | 0.00 | 0.00 | 39 | 1027.7 |